Regional Weather Roundup
Issued by NWS

Home | Current Version | Previous Version | Text Only | Print | Product List | Glossary On
Versions: 1 2 3 4 5 6 7 8 9 10 11 12 13 14 15 16 17 18 19 20 21 22 23 24 25 26 27 28 29 30 31 32 33 34 35 36 37 38 39 40 41 42 43 44 45 46 47 48 49 50
000
ASUS44 KLIX 271012
RWRLA
LOUISIANA WEATHER ROUNDUP
NATIONAL WEATHER SERVICE NEW ORLEANS LA
500 AM CDT MON APR 27 2015

NOTE: "FAIR" INDICATES FEW OR NO CLOUDS BELOW 12,000 FEET WITH NO
      SIGNIFICANT WEATHER AND/OR OBSTRUCTIONS TO VISIBILITY.
      SKY/WX - SKY CONDITION AND SIGNIFICANT WEATHER.
      TMP - AIR TEMPERATURE.    DP   - DEWPOINT TEMPERATURE.
      RH  - RELATIVE HUMIDITY.  PRES - PRESSURE.
      HX  - HEAT INDEX.         WCI  - WIND CHILL INDEX.

*  THESE STATIONS ARE NOT NWS OR FAA STATIONS AND ARE NOT UNDER
   NWS QUALITY CONTROL.

LAZ040-048-061>063-065-066-069-271100-
SOUTHEAST LOUISIANA

CITY           SKY/WX    TMP DP  RH WIND       PRES   REMARKS
N.O. AUDUBON     N/A     76  76  99 MISG        N/A
N.O. INTL ARPT CLOUDY    75  71  87 NE5       29.71R
N.O. LAKEFRONT CLOUDY    78  74  87 E7        29.72R FOG
SLIDELL        FOG       70  70 100 N6        29.72R VSB 1/4
BATON ROUGE    MOCLDY    71  69  93 NE6       29.69F FOG
BOOTHVILLE     FOG       73  73 100 NE6       29.70R VSB 1/2
BELLE CHASSE   CLOUDY    73  72  96 NE6       29.70R FOG
BOGALUSA*        N/A     68  63  83 NE5       29.76R
GALLIANO*      CLOUDY    76  74  92 CALM      29.68S FOG
NEW ROADS*     FAIR      69  68  97 CALM      29.69F FOG
GONZALES*      CLOUDY    72  72 100 CALM      29.70R FOG
HAMMOND*       MOCLDY    72  68  88 NE5       29.73F FOG
HOUMA*         CLOUDY    74  73  98 NE6       29.69R FOG
PORT FOURCHON* SUNNY     77  73  88 E10       29.71R FOG

$$

LAZ041-044-053-054-271100-
SOUTHWEST LOUISIANA

CITY           SKY/WX    TMP DP  RH WIND       PRES   REMARKS
LAKE CHARLES   CLOUDY    74  71  91 E10       29.62F FOG
LAFAYETTE      CLOUDY    73  71  93 E3        29.66F FOG
PATTERSON      MOCLDY    73  72  94 NE8       29.70R
SALT POINT       N/A     75  73  93 VRB3      29.67R
NEW IBERIA     CLOUDY    74  71  91 E8        29.67F
CHENAULT AIRPK CLOUDY    73  72  95 E8        29.63F FOG

$$

LAZ027-028-271100-
CENTRAL LOUISIANA

CITY           SKY/WX    TMP DP  RH WIND       PRES   REMARKS
FORT POLK      CLOUDY    69  68  94 NE10      29.65S
ALEXANDRIA INT CLOUDY    66  63  90 NE15G21   29.68F
ALEXANDRIA     CLOUDY    64  62  93 E9        29.71F

$$

LAZ001-002-271100-
NORTHWEST LOUISIANA

CITY           SKY/WX    TMP DP  RH WIND       PRES   REMARKS
SHREVEPORT     CLOUDY    62  55  77 NE15G22   29.80R
BARKSDALE AFB  CLOUDY    60  54  80 NE9       29.80R
DTN SHREVEPORT CLOUDY    60  53  77 NE12      29.82R

$$

LAZ014-016-271100-
NORTHEAST LOUISIANA

CITY           SKY/WX    TMP DP  RH WIND       PRES   REMARKS
MONROE         CLOUDY    59  55  87 NE14G23   29.79F
TALLULAH       CLOUDY    62  56  80 NE14      29.79F

$$



USA.gov is the U.S. government's official web portal to all federal, state and local government web resources and services.